Temperature
22 23 24 24 24 23 22 20 19 19 18 18 18 18 20 19 19 18 17 17 16 16 15 14 13 13 12 12 11 11 10 10 9 9 9 9 8 8 8 8 8 8 8 8
22 24 24 24 24 24 23 22 20 19 19 19 19 19 19 18 18 17 17 16 15 15 14 13 13 12 12 11 11 10 10 9 9 9 8 8 8 8 8 8 8 7 7 8
20 22 23 22 23 23 23 22 20 19 19 18 17 17 17 18 18 17 16 16 15 14 14 13 12 12 11 11 10 10 9 9 8 8 8 8 8 8 7 7 7 7 7 7
19 21 22 21 22 23 21 21 20 19 18 18 18 18 18 18 17 16 16 15 15 14 13 12 12 11 11 10 10 9 9 8 8 8 8 8 8 8 7 7 7 7 7 7
19 20 21 22 23 21 20 20 20 19 18 18 18 17 16 17 17 16 16 15 14 13 13 12 11 11 10 10 9 9 8 8 8 8 8 8 8 7 7 7 7 7 7 7
19 20 20 21 23 23 20 19 20 19 18 18 17 14 15 17 16 16 15 15 14 13 12 12 11 10 10 9 9 9 8 8 8 8 7 7 7 7 7 7 7 7 7 7
19 19 20 21 23 23 21 19 21 21 21 20 18 17 18 17 17 16 15 14 14 13 12 11 11 10 10 9 9 8 8 8 8 8 7 7 7 7 7 7 7 7 7 7
18 19 20 22 23 21 20 22 22 21 21 20 20 19 18 17 17 16 15 14 13 13 12 11 10 10 9 9 8 8 8 8 8 8 7 7 7 7 7 7 7 7 7 7
18 19 21 24 24 24 24 22 22 22 21 21 20 19 18 17 16 16 15 14 13 12 12 11 10 9 9 9 8 8 8 8 8 8 8 7 7 7 7 7 7 7 7 6
20 20 22 24 25 24 24 23 22 22 21 21 20 19 18 17 16 16 15 14 13 12 12 11 10 9 9 8 8 8 8 8 8 8 8 7 7 7 7 7 7 7 7 6
19 20 22 23 24 24 23 23 22 22 21 21 20 19 18 17 16 16 15 14 13 12 11 10 10 9 9 8 8 8 8 8 8 8 7 7 7 7 7 7 7 6 6 6
20 21 20 23 24 23 23 22 22 21 21 20 20 19 18 17 16 15 14 14 13 12 11 10 10 9 9 8 8 8 8 8 8 8 7 7 7 8 8 7 7 7 7 6
25 25 24 24 24 23 23 23 22 22 21 20 20 19 18 17 16 15 14 13 13 12 11 10 10 9 9 8 8 8 8 8 8 8 7 7 7 7 7 8 7 7 7 7
25 25 24 24 23 23 23 23 22 22 21 20 20 19 18 17 16 15 14 13 13 12 11 10 10 9 9 8 8 8 8 8 8 8 7 7 7 7 7 7 7 7 7 7
24 24 24 24 23 23 23 22 22 21 20 19 19 18 17 16 16 15 14 13 12 12 11 10 10 9 9 9 8 8 8 8 8 8 8 7 7 7 7 7 7 7 7 7
23 23 23 23 23 23 22 22 21 20 20 19 18 18 17 16 16 15 14 13 12 12 11 10 10 9 9 9 9 8 8 8 8 8 8 8 8 8 8 8 8 7 7 7
21 21 21 21 22 22 22 22 21 21 20 19 18 17 17 16 16 15 14 13 12 12 11 10 10 9 9 9 8 8 8 8 8 8 8 8 8 8 8 8 8 8 8 7
19 19 20 20 20 21 21 21 21 20 19 19 18 17 17 16 16 15 14 13 12 12 11 10 10 10 9 9 8 8 8 8 8 8 8 8 8 8 8 8 8 8 8 8
18 18 18 19 19 19 20 20 19 19 19 18 18 17 17 16 16 15 14 13 13 12 11 11 10 10 9 9 9 8 8 8 8 8 8 8 8 8 8 8 8 8 8 8
16 17 17 17 18 18 18 18 18 18 18 17 17 17 16 16 15 15 14 13 13 12 11 11 10 10 9 9 9 8 8 8 8 8 8 8 8 9 9 8 8 8 8 8
15 15 16 16 16 17 17 17 17 17 17 17 17 16 16 16 15 14 14 13 13 12 11 11 10 10 9 9 9 8 8 8 8 8 9 9 9 9 9 9 9 9 8 8
14 14 15 15 15 15 16 16 16 16 16 16 16 16 15 15 15 14 14 13 13 12 11 10 10 10 9 9 9 8 8 8 8 8 9 9 9 9 9 9 9 9 9 9
13 13 14 14 14 14 15 15 15 15 15 15 15 15 15 15 14 14 13 13 12 12 11 10 10 9 9 9 8 8 8 8 8 8 8 9 9 9 9 9 9 9 9 9
13 13 13 13 13 13 14 14 14 14 14 14 14 14 14 14 14 13 13 12 12 11 11 10 10 9 9 8 8 8 8 8 8 8 8 9 9 9 9 9 9 9 9 9
12 13 13 13 13 13 13 13 13 13 13 13 14 14 13 13 13 13 12 12 11 11 10 10 9 9 8 8 8 8 8 8 8 8 8 8 9 9 9 9 9 9 9 9
12 12 12 12 12 12 12 12 12 12 12 12 13 13 13 12 12 12 12 11 11 10 10 9 9 8 8 8 8 8 8 8 8 8 8 8 8 9 9 9 9 9 9 9
11 11 12 12 12 11 11 11 11 11 11 12 12 12 12 12 11 11 11 10 10 9 9 9 8 8 8 7 7 7 7 7 8 8 8 8 8 8 9 9 9 9 9 9
Wind_Speed
5 6 3 3 2 3 5 8 7 8 9 9 9 8 7 6 7 7 5 4 3 2 3 3 3 3 3 4 5 5 6 7 8 8 7 7 8 8 8 8 9 8 8 8
6 7 6 4 1 4 5 6 8 9 6 7 6 5 5 7 8 6 5 3 2 3 3 3 3 3 3 4 6 5 6 7 7 7 7 8 8 8 8 8 9 8 8 9
4 8 5 3 2 4 4 5 9 7 7 7 6 8 8 7 7 6 5 3 3 3 3 3 4 4 4 5 6 6 7 7 7 7 8 8 9 9 9 9 8 9 9 9
1 5 3 6 1 9 8 4 6 8 8 8 8 7 7 7 7 6 5 3 3 3 3 3 3 3 4 5 6 6 7 7 8 8 9 9 9 9 9 8 8 9 9 9
3 1 5 4 1 6 7 3 3 8 8 7 7 5 0 4 7 7 5 4 4 3 3 3 4 4 4 6 6 6 7 8 8 8 9 10 10 10 9 9 9 9 8 9
4 3 5 7 4 6 9 1 3 8 9 8 7 2 4 6 6 6 4 3 3 2 1 2 4 4 4 6 7 7 8 9 9 9 9 10 11 11 9 8 9 9 9 8
5 4 6 7 5 5 3 8 8 9 10 9 7 7 6 8 6 5 4 3 2 1 2 4 4 3 5 7 7 8 8 9 9 9 9 10 9 8 9 9 9 8 9 9
4 3 7 7 5 7 9 7 9 9 9 9 8 8 8 8 7 5 3 2 1 1 3 4 4 3 6 7 8 8 8 9 10 10 10 10 9 10 9 8 8 8 7 8
7 8 8 7 9 8 9 9 9 9 9 10 10 9 9 7 6 4 3 2 2 2 4 5 4 4 6 7 7 7 8 9 10 11 10 9 9 9 9 7 6 6 6 6
2 6 6 5 6 7 8 9 9 9 10 11 10 9 9 7 5 4 3 3 2 1 3 5 5 5 5 7 6 7 9 10 9 10 11 10 8 7 7 7 6 6 6 6
3 5 1 2 6 8 7 7 8 8 9 11 11 9 9 7 7 5 4 3 2 2 3 5 5 6 6 6 6 7 9 9 9 9 9 10 9 7 7 6 6 6 6 5
6 8 6 7 8 9 9 9 10 10 9 9 10 10 9 8 6 5 4 3 2 3 3 5 5 5 6 5 6 7 8 9 8 8 9 8 9 9 9 8 9 9 9 7
7 6 7 6 7 9 10 11 11 11 11 9 9 9 9 7 6 5 4 3 3 3 4 4 4 5 6 6 6 7 8 9 8 8 8 8 8 8 8 8 7 7 7 7
5 4 3 4 6 8 9 10 10 9 9 10 9 8 8 6 5 5 5 5 4 3 3 4 4 5 6 6 7 8 8 9 9 8 8 8 7 7 6 6 6 6 5 6
4 5 7 6 5 6 6 8 8 8 8 8 8 9 9 7 6 6 5 4 2 2 3 3 4 6 6 6 7 8 8 7 8 8 7 7 6 6 5 5 5 5 5 4
1 2 2 2 3 4 6 7 9 9 9 8 8 8 9 8 7 6 6 5 3 3 4 3 4 6 6 6 7 7 7 12 11 8 7 6 6 6 5 5 5 5 5 4
7 5 4 2 1 2 5 7 10 11 10 10 10 9 8 8 6 6 5 5 5 4 4 3 4 5 6 6 6 6 7 9 13 9 6 6 6 6 6 5 5 5 5 5
9 7 6 4 2 0 1 3 5 8 10 10 10 9 9 8 8 8 7 6 3 2 3 4 4 4 5 6 5 5 6 7 7 7 6 6 6 6 6 5 5 5 5 5
16 16 14 12 9 5 2 1 4 6 7 9 10 10 9 9 9 8 7 6 4 4 5 5 5 3 4 6 7 5 6 7 7 7 6 7 7 6 5 5 5 5 5 5
16 14 14 13 12 9 6 3 1 3 5 6 7 8 8 8 9 8 7 6 6 6 5 4 2 2 3 5 8 5 6 6 7 7 6 6 6 6 6 6 5 5 4 4
13 13 13 12 11 10 7 4 1 3 5 6 8 9 10 9 8 7 6 5 6 6 4 3 2 1 2 5 7 5 6 6 6 6 6 6 6 6 6 5 5 5 4 4
10 11 11 10 9 9 8 7 6 5 5 6 7 7 7 7 7 6 5 6 6 7 4 2 2 2 3 5 4 4 5 6 5 5 6 6 6 6 6 6 6 5 5 4
8 8 9 9 9 10 10 8 8 7 7 7 8 8 8 8 6 6 5 5 6 8 5 3 3 2 3 3 3 4 4 5 6 6 6 6 6 6 5 6 6 5 5 4
8 9 9 9 9 8 9 10 10 8 8 8 8 8 6 5 4 5 4 8 11 9 5 5 5 2 1 2 2 3 4 4 5 6 6 6 6 6 6 6 6 6 5 5
10 9 9 9 8 8 9 9 9 8 8 6 6 5 4 4 5 5 5 7 10 9 5 5 6 2 0 1 2 3 3 4 5 5 6 6 7 7 6 6 6 6 5 5
9 8 8 8 6 6 5 5 4 5 5 5 5 4 2 1 3 4 5 7 9 8 5 3 3 2 1 1 2 3 3 4 5 5 6 6 7 7 7 7 8 6 5 5
8 7 6 6 5 5 4 4 5 5 4 3 4 3 2 1 2 4 4 5 5 5 5 4 3 3 2 2 2 3 3 4 5 5 5 6 6 6 7 7 6 6 6 6
Wind_Direction
249 271 280 257 218 152 143 162 160 178 171 193 188 182 181 162 136 127 138 147 158 205 255 274 282 289 292 292 296 298 300 298 292 290 290 290 289 287 285 282 284 274 269 266
324 314 324 306 273 143 127 129 133 138 174 202 180 147 140 142 139 144 157 169 196 246 275 280 276 278 286 288 291 293 297 296 295 298 297 294 290 288 287 284 281 277 270 265
291 312 358 322 228 135 117 136 147 164 187 170 159 165 169 167 157 158 169 192 238 265 265 263 258 259 270 281 292 301 299 298 300 300 296 293 296 297 288 284 278 276 272 266
243 10 327 266 267 118 103 74 121 134 155 166 170 173 180 173 161 166 182 210 248 255 258 257 259 266 277 291 302 303 302 301 301 301 298 297 295 291 287 280 277 274 273 267
131 219 280 288 241 138 120 70 135 137 149 147 133 105 229 195 173 181 191 200 213 222 226 259 276 279 295 304 306 305 302 299 299 299 299 302 300 295 290 286 283 277 272 267
155 180 239 242 232 136 101 106 207 148 150 152 134 126 242 208 183 179 178 188 203 227 249 293 282 285 304 303 304 301 296 296 298 297 298 300 297 293 290 286 283 284 281 270
189 212 252 233 201 123 138 221 200 164 162 161 171 195 200 182 181 175 173 186 183 191 280 278 280 294 303 302 297 290 294 299 301 301 299 296 294 292 292 292 292 290 288 284
165 182 248 230 160 173 204 184 171 168 169 164 172 170 164 169 171 169 173 203 194 244 285 285 290 300 301 297 290 295 300 303 304 304 305 309 302 300 297 295 297 296 295 296
184 210 227 208 191 194 161 165 176 172 173 158 157 166 169 171 174 183 190 217 218 246 291 297 296 293 292 291 298 305 308 307 307 308 306 302 300 301 304 300 295 297 297 298
234 260 236 207 176 167 166 170 174 168 166 159 162 168 166 170 182 194 211 219 219 263 300 296 295 298 286 292 302 307 309 309 309 309 308 307 303 298 297 297 295 294 296 297
301 284 342 191 190 178 169 155 155 161 165 164 159 164 168 175 187 196 206 212 209 238 273 282 292 299 299 302 310 311 310 310 310 306 304 307 305 296 291 279 266 271 279 281
239 237 195 217 210 175 163 167 166 161 166 168 163 166 166 175 185 188 196 197 217 254 272 279 289 298 300 302 307 310 314 314 310 308 308 308 309 310 300 287 284 268 259 261
219 220 196 195 179 169 171 178 176 171 168 168 167 163 162 170 180 181 183 192 216 243 263 273 288 296 297 302 307 305 304 307 307 307 307 309 310 311 313 315 307 286 278 273
211 157 151 174 184 184 179 180 174 166 164 161 160 157 154 157 165 174 190 203 210 232 267 275 287 294 296 305 308 305 305 309 311 304 304 306 306 306 302 305 313 311 297 281
211 181 186 195 186 184 167 154 151 158 158 157 155 152 151 156 173 189 194 194 198 260 285 283 291 294 299 307 309 308 310 309 309 305 305 305 306 307 304 302 302 300 304 305
280 48 102 133 171 180 164 161 163 171 167 163 158 157 162 165 173 180 185 183 194 263 269 267 280 289 299 308 312 312 311 314 319 310 310 312 312 313 311 306 303 302 296 290
55 34 22 35 93 179 181 178 178 175 166 161 164 164 164 161 164 178 197 208 212 229 222 232 266 289 301 307 309 310 310 314 320 317 310 310 310 309 306 303 297 298 292 276
46 40 42 49 50 58 187 181 171 162 165 169 162 163 169 174 184 193 204 211 217 220 219 238 263 294 307 310 310 307 306 305 310 309 308 308 307 306 305 306 306 305 299 299
38 33 29 28 23 24 44 121 161 164 162 160 168 177 186 190 190 192 193 198 213 231 241 252 281 301 308 313 327 306 307 309 314 314 313 316 318 316 315 314 311 307 305 309
29 26 25 20 18 19 18 15 98 150 170 176 181 188 194 198 194 191 190 203 212 208 215 240 255 275 306 313 327 307 307 309 315 319 322 326 321 318 319 321 318 318 316 314
18 15 14 12 7 3 357 348 305 230 219 200 196 204 207 207 197 187 187 213 221 199 208 225 196 257 301 312 317 308 309 313 318 322 323 325 325 322 322 326 327 325 323 317
4 1 356 352 345 335 328 319 301 275 252 238 227 217 211 211 205 200 205 206 194 187 184 182 196 252 314 323 314 315 320 325 327 329 329 327 326 326 325 325 326 326 326 321
342 337 332 325 317 309 309 309 300 290 272 255 243 231 223 215 199 189 216 208 175 179 174 183 200 249 329 333 322 326 333 337 338 336 332 330 327 326 323 324 329 333 334 341
324 318 313 310 315 318 313 308 305 297 285 276 261 245 228 216 218 211 188 173 175 172 173 185 186 204 326 326 330 337 340 340 338 336 338 338 335 334 337 335 334 337 342 351
311 309 310 314 316 308 300 305 314 315 309 301 289 268 237 207 199 193 173 176 177 168 171 180 176 162 92 352 356 357 351 347 345 341 343 344 342 342 344 345 345 349 359 3
303 302 299 297 295 297 303 310 317 321 323 321 319 309 290 235 178 164 168 174 173 166 161 152 151 137 109 71 32 13 359 349 349 351 348 346 344 346 348 353 357 2 7 11
301 305 308 314 317 322 329 329 323 319 318 315 311 307 302 238 164 154 157 158 158 156 147 136 127 117 102 74 45 21 7 360 356 354 352 352 349 347 348 354 5 9 12 18
Height
1498 1492 1490 1490 1489 1490 1496 1503 1513 1513 1513 1510 1507 1505 1506 1506 1506 1507 1507 1506 1505 1503 1501 1498 1496 1493 1490 1487 1484 1480 1476 1473 1469 1465 1462 1458 1455 1452 1449 1446 1443 1440 1438 1436
1498 1489 1488 1489 1487 1487 1490 1494 1502 1507 1509 1502 1503 1504 1505 1505 1505 1505 1504 1503 1502 1500 1498 1495 1492 1489 1486 1483 1479 1475 1472 1468 1464 1460 1456 1453 1449 1445 1442 1439 1436 1433 1430 1428
1508 1496 1493 1500 1489 1488 1490 1490 1496 1506 1504 1500 1503 1503 1503 1503 1503 1502 1502 1500 1499 1497 1494 1491 1489 1485 1482 1478 1475 1471 1467 1463 1459 1455 1451 1447 1443 1439 1435 1432 1428 1426 1423 1421
1509 1507 1512 1500 1482 1482 1489 1492 1491 1493 1496 1497 1498 1500 1500 1500 1500 1499 1499 1497 1495 1493 1490 1488 1485 1481 1478 1474 1470 1466 1462 1458 1454 1450 1445 1441 1437 1433 1429 1426 1422 1419 1416 1414
1512 1513 1507 1492 1484 1484 1491 1497 1492 1493 1495 1496 1497 1499 1500 1499 1498 1497 1495 1494 1492 1490 1487 1484 1481 1477 1474 1470 1466 1462 1458 1453 1449 1445 1440 1436 1431 1428 1424 1420 1416 1413 1410 1407
1507 1511 1513 1496 1481 1479 1487 1500 1491 1490 1492 1494 1496 1501 1499 1496 1495 1494 1492 1491 1489 1486 1484 1481 1477 1474 1470 1466 1462 1457 1453 1449 1444 1440 1436 1431 1427 1423 1419 1415 1411 1408 1404 1401
1505 1508 1499 1482 1477 1479 1497 1497 1486 1486 1488 1489 1490 1492 1492 1492 1491 1491 1489 1488 1485 1483 1480 1477 1473 1470 1466 1462 1458 1454 1449 1445 1440 1436 1431 1427 1423 1419 1415 1411 1407 1403 1399 1396
1503 1507 1500 1473 1475 1481 1482 1477 1480 1482 1483 1485 1486 1487 1488 1488 1488 1487 1486 1484 1482 1479 1477 1474 1470 1466 1462 1458 1454 1450 1445 1441 1436 1432 1428 1423 1419 1415 1411 1407 1402 1398 1394 1391
1488 1487 1471 1467 1468 1469 1471 1473 1476 1478 1480 1481 1482 1483 1484 1485 1485 1484 1483 1481 1479 1476 1473 1470 1467 1463 1459 1455 1450 1446 1442 1437 1433 1429 1424 1420 1415 1411 1407 1403 1399 1394 1391 1387
1475 1470 1465 1464 1465 1467 1468 1470 1472 1474 1476 1477 1478 1479 1480 1481 1481 1480 1479 1477 1475 1473 1470 1467 1463 1460 1456 1451 1447 1443 1438 1434 1430 1425 1421 1416 1412 1408 1403 1399 1395 1391 1388 1384
1473 1467 1464 1464 1463 1464 1466 1468 1470 1472 1473 1474 1475 1476 1477 1477 1477 1477 1476 1474 1472 1469 1466 1463 1460 1456 1452 1448 1444 1439 1435 1431 1427 1422 1418 1413 1409 1405 1400 1397 1393 1389 1385 1382
1472 1463 1463 1461 1461 1462 1464 1466 1467 1468 1470 1471 1471 1472 1472 1473 1473 1473 1472 1470 1468 1466 1463 1460 1456 1453 1449 1445 1441 1437 1432 1428 1424 1420 1415 1411 1406 1402 1398 1394 1390 1387 1383 1380
1460 1458 1458 1458 1459 1460 1461 1462 1463 1464 1465 1466 1467 1468 1469 1469 1470 1470 1468 1467 1465 1463 1460 1457 1453 1450 1446 1442 1438 1434 1430 1426 1422 1417 1413 1409 1404 1400 1395 1392 1388 1385 1381 1378
1456 1456 1456 1456 1456 1457 1458 1459 1460 1461 1462 1463 1463 1465 1466 1467 1467 1467 1466 1464 1462 1459 1456 1454 1450 1447 1443 1439 1435 1431 1428 1424 1420 1415 1411 1407 1403 1399 1395 1390 1387 1383 1380 1377
1453 1452 1452 1452 1453 1454 1455 1456 1456 1457 1458 1459 1460 1461 1462 1463 1464 1463 1463 1461 1459 1456 1453 1450 1447 1444 1440 1436 1433 1429 1425 1421 1417 1414 1410 1406 1402 1398 1394 1390 1386 1382 1379 1376
1450 1449 1449 1450 1450 1450 1451 1452 1452 1453 1454 1455 1457 1458 1459 1460 1460 1460 1459 1457 1456 1453 1450 1447 1444 1441 1437 1434 1430 1426 1423 1419 1416 1412 1408 1404 1400 1397 1393 1389 1386 1382 1379 1376
1449 1449 1449 1448 1448 1448 1448 1448 1449 1449 1451 1452 1453 1455 1456 1456 1456 1456 1455 1454 1452 1449 1447 1444 1441 1438 1434 1431 1428 1424 1421 1418 1414 1411 1407 1403 1400 1396 1392 1389 1385 1382 1379 1376
1452 1451 1449 1448 1448 1447 1447 1447 1448 1448 1448 1449 1451 1452 1452 1452 1452 1451 1451 1450 1448 1446 1443 1441 1438 1435 1432 1429 1426 1423 1419 1416 1413 1409 1406 1403 1399 1396 1392 1389 1385 1382 1379 1376
1452 1451 1450 1449 1449 1448 1447 1447 1447 1447 1447 1447 1448 1448 1448 1448 1448 1447 1446 1445 1444 1442 1440 1438 1435 1432 1429 1426 1424 1421 1418 1415 1412 1409 1405 1402 1399 1395 1392 1388 1385 1382 1379 1376
1455 1454 1452 1451 1450 1450 1449 1448 1448 1447 1446 1446 1446 1445 1444 1443 1443 1442 1441 1440 1439 1438 1436 1434 1432 1429 1426 1424 1422 1419 1416 1413 1411 1408 1405 1402 1398 1395 1392 1388 1385 1382 1379 1376
1458 1456 1455 1453 1452 1451 1450 1449 1448 1447 1445 1443 1442 1441 1440 1439 1438 1437 1436 1436 1435 1434 1432 1431 1429 1426 1424 1421 1419 1417 1414 1412 1409 1407 1404 1401 1398 1395 1392 1388 1385 1382 1379 1377
1460 1458 1456 1454 1453 1451 1450 1448 1446 1444 1442 1440 1439 1437 1436 1435 1433 1432 1431 1431 1431 1430 1429 1427 1425 1423 1421 1419 1417 1415 1413 1410 1408 1406 1403 1401 1398 1395 1392 1389 1386 1383 1380 1377
1461 1459 1456 1454 1452 1449 1447 1445 1442 1440 1438 1436 1434 1432 1430 1429 1428 1428 1427 1427 1426 1425 1424 1423 1421 1420 1418 1416 1414 1412 1411 1409 1407 1404 1402 1400 1398 1395 1392 1389 1386 1383 1380 1378
1459 1456 1454 1451 1449 1446 1443 1440 1438 1435 1432 1430 1428 1426 1425 1423 1422 1422 1422 1422 1422 1421 1420 1419 1418 1417 1416 1414 1412 1410 1408 1407 1405 1403 1401 1399 1397 1395 1392 1390 1387 1384 1382 1379
1456 1453 1450 1447 1444 1442 1439 1436 1433 1430 1427 1424 1422 1420 1419 1418 1417 1416 1416 1417 1417 1416 1416 1416 1415 1414 1413 1411 1410 1408 1406 1405 1403 1402 1400 1399 1397 1395 1392 1390 1388 1386 1383 1381
1452 1449 1446 1444 1441 1438 1435 1432 1429 1426 1423 1420 1417 1415 1414 1413 1412 1411 1411 1412 1412 1412 1412 1412 1412 1411 1410 1409 1407 1406 1404 1403 1402 1400 1399 1398 1396 1395 1393 1391 1389 1387 1385 1383
1447 1445 1442 1440 1437 1435 1432 1429 1426 1423 1420 1417 1414 1412 1410 1408 1407 1407 1407 1408 1408 1409 1409 1409 1409 1408 1407 1406 1405 1404 1402 1401 1400 1399 1398 1397 1396 1395 1393 1392 1390 1389 1387 1385